TimeEDT,TemperatureF,Dew PointF,Humidity,Sea Level PressureIn,VisibilityMPH,Wind Direction,Wind SpeedMPH,Gust SpeedMPH,PrecipitationIn,Events,Conditions,WindDirDegrees,DateUTC
12:15 AM,68.0,66.2,94,29.95,5.0,North,4.6,-,N/A,,Clear,360,2013-09-27 04:15:00
12:35 AM,68.0,66.2,94,29.95,5.0,North,4.6,-,N/A,,Clear,10,2013-09-27 04:35:00
12:55 AM,68.0,66.2,94,29.95,5.0,North,3.5,-,N/A,,Clear,10,2013-09-27 04:55:00
1:15 AM,66.2,66.2,100,29.95,4.0,North,3.5,-,N/A,,Clear,10,2013-09-27 05:15:00
1:35 AM,66.2,66.2,100,29.95,4.0,North,4.6,-,N/A,,Clear,360,2013-09-27 05:35:00
1:55 AM,66.2,66.2,100,29.95,4.0,North,4.6,-,N/A,,Clear,360,2013-09-27 05:55:00
2:15 AM,66.2,66.2,100,29.95,4.0,North,4.6,-,N/A,,Clear,360,2013-09-27 06:15:00
2:35 AM,66.2,66.2,100,29.95,4.0,North,4.6,-,N/A,,Clear,360,2013-09-27 06:35:00
2:55 AM,66.2,66.2,100,29.94,4.0,North,4.6,-,N/A,,Clear,360,2013-09-27 06:55:00
3:15 AM,66.2,66.2,100,29.94,4.0,North,3.5,-,N/A,,Clear,360,2013-09-27 07:15:00
3:35 AM,66.2,64.4,94,29.94,4.0,North,3.5,-,N/A,,Clear,360,2013-09-27 07:35:00
3:55 AM,66.2,64.4,94,29.94,5.0,North,3.5,-,N/A,,Clear,10,2013-09-27 07:55:00
4:15 AM,66.2,64.4,94,29.94,5.0,North,4.6,-,N/A,,Clear,10,2013-09-27 08:15:00
4:35 AM,64.4,64.4,100,29.94,4.0,North,4.6,-,N/A,,Clear,10,2013-09-27 08:35:00
4:55 AM,64.4,64.4,100,29.94,4.0,North,4.6,-,N/A,,Clear,360,2013-09-27 08:55:00
5:15 AM,64.4,64.4,100,29.94,5.0,NNE,3.5,-,N/A,,Clear,20,2013-09-27 09:15:00
5:35 AM,64.4,64.4,100,29.95,5.0,NNE,4.6,-,N/A,,Clear,20,2013-09-27 09:35:00
5:55 AM,64.4,64.4,100,29.95,5.0,NNE,3.5,-,N/A,,Clear,20,2013-09-27 09:55:00
6:15 AM,64.4,64.4,100,29.96,5.0,NNE,4.6,-,N/A,,Clear,20,2013-09-27 10:15:00
6:35 AM,64.4,64.4,100,29.96,7.0,North,4.6,-,N/A,,Clear,10,2013-09-27 10:35:00
6:55 AM,64.4,62.6,94,29.97,7.0,North,4.6,-,N/A,,Clear,10,2013-09-27 10:55:00
7:15 AM,64.4,62.6,94,29.98,10.0,NNE,3.5,-,N/A,,Clear,20,2013-09-27 11:15:00
7:35 AM,62.6,62.6,100,29.99,7.0,North,4.6,-,N/A,,Clear,360,2013-09-27 11:35:00
7:55 AM,64.4,62.6,94,30.00,7.0,North,4.6,-,N/A,,Clear,360,2013-09-27 11:55:00
8:15 AM,64.4,64.4,100,30.00,10.0,North,3.5,-,N/A,,Clear,10,2013-09-27 12:15:00
8:35 AM,66.2,64.4,94,30.01,10.0,NNE,4.6,-,N/A,,Clear,20,2013-09-27 12:35:00
8:55 AM,66.2,62.6,88,30.01,10.0,NE,5.8,-,N/A,,Scattered Clouds,40,2013-09-27 12:55:00
9:15 AM,68.0,64.4,88,30.02,10.0,NNE,6.9,-,N/A,,Mostly Cloudy,30,2013-09-27 13:15:00
9:35 AM,69.8,64.4,83,30.02,10.0,NNE,8.1,-,N/A,,Mostly Cloudy,30,2013-09-27 13:35:00
9:55 AM,71.6,64.4,78,30.03,10.0,NE,6.9,-,N/A,,Mostly Cloudy,40,2013-09-27 13:55:00
10:15 AM,73.4,64.4,73,30.03,10.0,ENE,9.2,-,N/A,,Scattered Clouds,60,2013-09-27 14:15:00
10:35 AM,75.2,64.4,69,30.04,10.0,NE,11.5,-,N/A,,Clear,40,2013-09-27 14:35:00
10:55 AM,75.2,64.4,69,30.04,10.0,NNE,9.2,-,N/A,,Scattered Clouds,30,2013-09-27 14:55:00
11:15 AM,77.0,64.4,65,30.04,10.0,NE,11.5,17.3,N/A,,Scattered Clouds,50,2013-09-27 15:15:00
11:35 AM,78.8,64.4,61,30.04,10.0,NNE,12.7,-,N/A,,Mostly Cloudy,20,2013-09-27 15:35:00
11:55 AM,80.6,64.4,58,30.04,10.0,NE,9.2,-,N/A,,Overcast,50,2013-09-27 15:55:00
12:15 PM,80.6,64.4,58,30.03,10.0,NE,9.2,-,N/A,,Scattered Clouds,50,2013-09-27 16:15:00
12:35 PM,80.6,64.4,58,30.03,10.0,NNE,12.7,16.1,N/A,,Clear,20,2013-09-27 16:35:00
12:55 PM,80.6,66.2,61,30.02,10.0,NE,10.4,-,N/A,,Clear,50,2013-09-27 16:55:00
1:15 PM,82.4,66.2,58,30.02,10.0,NE,8.1,-,N/A,,Scattered Clouds,40,2013-09-27 17:15:00
1:35 PM,82.4,66.2,58,30.01,10.0,NNE,10.4,17.3,N/A,,Scattered Clouds,20,2013-09-27 17:35:00
1:55 PM,82.4,66.2,58,30.01,10.0,NE,10.4,-,N/A,,Scattered Clouds,50,2013-09-27 17:55:00
2:15 PM,82.4,66.2,58,29.99,10.0,NNE,8.1,-,N/A,,Scattered Clouds,30,2013-09-27 18:15:00
2:35 PM,82.4,66.2,58,29.99,10.0,NE,5.8,17.3,N/A,,Clear,50,2013-09-27 18:35:00
2:55 PM,80.6,66.2,61,29.99,10.0,NNE,6.9,10.4,N/A,,Scattered Clouds,30,2013-09-27 18:55:00
3:15 PM,84.2,66.2,55,29.98,10.0,NE,11.5,-,N/A,,Scattered Clouds,40,2013-09-27 19:15:00
3:35 PM,84.2,66.2,55,29.98,10.0,North,6.9,-,N/A,,Scattered Clouds,10,2013-09-27 19:35:00
3:55 PM,82.4,66.2,58,29.98,10.0,ENE,8.1,-,N/A,,Scattered Clouds,60,2013-09-27 19:55:00
4:15 PM,84.2,66.2,55,29.98,10.0,NE,11.5,16.1,N/A,,Scattered Clouds,40,2013-09-27 20:15:00
4:35 PM,80.6,66.2,61,29.99,10.0,NE,6.9,-,N/A,,Scattered Clouds,40,2013-09-27 20:35:00
4:55 PM,82.4,66.2,58,29.99,10.0,NE,9.2,-,N/A,,Mostly Cloudy,50,2013-09-27 20:55:00
5:15 PM,82.4,66.2,58,29.99,10.0,NE,10.4,-,N/A,,Mostly Cloudy,40,2013-09-27 21:15:00
5:35 PM,82.4,66.2,58,29.99,10.0,NE,9.2,-,N/A,,Scattered Clouds,40,2013-09-27 21:35:00
5:55 PM,82.4,66.2,58,30.00,10.0,NE,8.1,-,N/A,,Clear,50,2013-09-27 21:55:00
6:15 PM,82.4,64.4,54,30.00,10.0,NE,10.4,-,N/A,,Clear,50,2013-09-27 22:15:00
6:35 PM,80.6,64.4,58,30.00,10.0,NE,6.9,-,N/A,,Clear,40,2013-09-27 22:35:00
6:55 PM,78.8,64.4,61,30.00,10.0,ENE,5.8,-,N/A,,Scattered Clouds,60,2013-09-27 22:55:00
7:15 PM,78.8,64.4,61,30.01,10.0,NE,4.6,-,N/A,,Mostly Cloudy,50,2013-09-27 23:15:00
7:35 PM,75.2,64.4,69,30.01,10.0,NE,3.5,-,N/A,,Scattered Clouds,50,2013-09-27 23:35:00
7:55 PM,73.4,64.4,73,30.02,10.0,ENE,3.5,-,N/A,,Clear,60,2013-09-27 23:55:00
8:15 PM,73.4,64.4,73,30.02,10.0,ENE,4.6,-,N/A,,Clear,70,2013-09-28 00:15:00
8:35 PM,71.6,64.4,78,30.03,10.0,ENE,4.6,-,N/A,,Clear,70,2013-09-28 00:35:00
8:55 PM,71.6,64.4,78,30.03,10.0,ENE,3.5,-,N/A,,Clear,60,2013-09-28 00:55:00
9:15 PM,71.6,64.4,78,30.04,10.0,ENE,4.6,-,N/A,,Clear,70,2013-09-28 01:15:00
9:35 PM,71.6,64.4,78,30.05,10.0,Calm,Calm,-,N/A,,Clear,0,2013-09-28 01:35:00
9:55 PM,71.6,64.4,78,30.06,10.0,NE,3.5,-,N/A,,Clear,40,2013-09-28 01:55:00
10:15 PM,69.8,64.4,83,30.06,10.0,NE,3.5,-,N/A,,Clear,40,2013-09-28 02:15:00
10:35 PM,68.0,64.4,88,30.07,10.0,NNE,3.5,-,N/A,,Clear,30,2013-09-28 02:35:00
10:55 PM,69.8,64.4,83,30.07,10.0,NE,4.6,-,N/A,,Clear,40,2013-09-28 02:55:00
11:15 PM,69.8,64.4,83,30.06,10.0,NNE,3.5,-,N/A,,Clear,30,2013-09-28 03:15:00
11:35 PM,69.8,64.4,83,30.06,10.0,NNE,3.5,-,N/A,,Clear,30,2013-09-28 03:35:00
11:55 PM,68.0,64.4,88,30.06,10.0,NE,4.6,-,N/A,,Clear,40,2013-09-28 03:55:00